• In Latvia
  • List of Countries
  • For 7 days
  • Water Temperature
  • Satellite Maps
  • Weather Map
  • Weather Widgets
  • user-avatar
    Login

    Hourly Weather Innsbruck

    Today, 22 July, Sunday

    Time Temperature Precipitation Wind Pressure Humidity
    00:00 +8°C° 0.7 mm 1 mps 596 mmHg 97%
    01:00 +8°C° 0.7 mm 1 mps 596 mmHg 97%
    02:00 +8°C° 0.3 mm 1 mps 596 mmHg 97%
    03:00 +7°C° 0.3 mm 1 mps 595 mmHg 96%
    04:00 +6°C° 0.3 mm 2 mps 595 mmHg 96%
    05:00 +7°C° 0.1 mm 2 mps 596 mmHg 95%
    06:00 +7°C° 0.1 mm 2 mps 596 mmHg 94%
    07:00 +7°C° 0.1 mm 2 mps 596 mmHg 92%
    08:00 +9°C° 0.1 mm 2 mps 597 mmHg 87%
    09:00 +10°C° 0.1 mm 2 mps 597 mmHg 81%
    10:00 +12°C° 0.1 mm 2 mps 597 mmHg 75%
    11:00 +13°C° 0.3 mm 2 mps 598 mmHg 74%
    12:00 +13°C° 0.3 mm 2 mps 598 mmHg 72%
    13:00 +14°C° 0.3 mm 2 mps 598 mmHg 71%
    14:00 +14°C° 0.6 mm 2 mps 598 mmHg 74%
    15:00 +13°C° 0.6 mm 2 mps 598 mmHg 78%
    16:00 +13°C° 0.6 mm 2 mps 597 mmHg 82%
    17:00 +12°C° 0.6 mm 2 mps 597 mmHg 85%
    18:00 +12°C° 0.6 mm 2 mps 597 mmHg 88%
    19:00 +11°C° 0.6 mm 1 mps 597 mmHg 91%
    20:00 +10°C° 0.5 mm 1 mps 597 mmHg 93%
    21:00 +10°C° 0.5 mm 1 mps 597 mmHg 94%
    22:00 +9°C° 0.5 mm 1 mps 597 mmHg 96%
    23:00 +9°C° 0.3 mm 1 mps 597 mmHg 96%

    Tomorrow, 23 July, Monday

    Time Temperature Precipitation Wind Pressure Humidity
    00:00 +7°C° 0.3 mm 2 mps 597 mmHg 96%
    01:00 +7°C° 0.3 mm 2 mps 596 mmHg 96%
    02:00 +7°C° 0.1 mm 2 mps 596 mmHg 96%
    03:00 +7°C° 0.1 mm 2 mps 596 mmHg 97%
    04:00 +7°C° 0.1 mm 2 mps 596 mmHg 97%
    05:00 +7°C° 0.3 mm 2 mps 597 mmHg 96%
    06:00 +8°C° 0.3 mm 2 mps 597 mmHg 95%
    07:00 +8°C° 0.3 mm 2 mps 597 mmHg 94%
    08:00 +9°C° 0.5 mm 2 mps 598 mmHg 92%
    09:00 +9°C° 0.5 mm 2 mps 598 mmHg 90%
    10:00 +10°C° 0.5 mm 2 mps 598 mmHg 88%
    11:00 +12°C° 0.1 mm 2 mps 599 mmHg 80%
    12:00 +14°C° 0.1 mm 2 mps 600 mmHg 73%
    13:00 +16°C° 0.1 mm 2 mps 600 mmHg 65%
    14:00 +16°C° 0.1 mm 2 mps 600 mmHg 63%
    15:00 +16°C° 0.1 mm 2 mps 600 mmHg 61%
    16:00 +16°C° 0.1 mm 3 mps 600 mmHg 58%
    17:00 +15°C° 0.1 mm 2 mps 600 mmHg 65%
    18:00 +14°C° 0.1 mm 2 mps 600 mmHg 72%
    19:00 +13°C° 0.1 mm 2 mps 599 mmHg 79%
    20:00 +12°C° 0 mm 2 mps 599 mmHg 84%
    21:00 +10°C° 0 mm 1 mps 599 mmHg 89%
    22:00 +9°C° 0 mm 1 mps 598 mmHg 94%
    23:00 +8°C° 0 mm 1 mps 598 mmHg 94%

    Day after tomorrow, 24 July, Tuesday

    Time Temperature Precipitation Wind Pressure Humidity
    00:00 +7°C° 0 mm 1 mps 598 mmHg 95%
    01:00 +7°C° 0 mm 1 mps 597 mmHg 95%
    02:00 +6°C° 0 mm 1 mps 597 mmHg 94%
    03:00 +6°C° 0 mm 1 mps 597 mmHg 92%
    04:00 +6°C° 0 mm 1 mps 596 mmHg 91%
    05:00 +8°C° 0 mm 1 mps 597 mmHg 85%
    06:00 +10°C° 0 mm 1 mps 598 mmHg 79%
    07:00 +11°C° 0 mm 0 mps 599 mmHg 73%
    08:00 +14°C° 0 mm 1 mps 600 mmHg 65%
    09:00 +16°C° 0 mm 1 mps 600 mmHg 57%
    10:00 +19°C° 0 mm 1 mps 601 mmHg 49%
    11:00 +19°C° 0 mm 2 mps 601 mmHg 47%
    12:00 +19°C° 0 mm 2 mps 601 mmHg 45%
    13:00 +20°C° 0 mm 2 mps 601 mmHg 43%
    14:00 +20°C° 0 mm 2 mps 601 mmHg 46%
    15:00 +20°C° 0 mm 2 mps 601 mmHg 48%
    16:00 +19°C° 0 mm 3 mps 600 mmHg 51%
    17:00 +18°C° 0.2 mm 2 mps 600 mmHg 60%
    18:00 +16°C° 0.2 mm 2 mps 599 mmHg 70%
    19:00 +15°C° 0.2 mm 2 mps 599 mmHg 79%
    20:00 +13°C° 0.1 mm 2 mps 598 mmHg 85%
    21:00 +11°C° 0.1 mm 1 mps 598 mmHg 91%
    22:00 +10°C° 0.1 mm 1 mps 597 mmHg 96%
    23:00 +9°C° 0 mm 1 mps 597 mmHg 96%

    25 July, Wednesday

    Time Temperature Precipitation Wind Pressure Humidity
    00:00 +9°C° 0 mm 1 mps 597 mmHg 97%
    01:00 +9°C° 0 mm 1 mps 597 mmHg 97%
    02:00 +9°C° 0 mm 1 mps 597 mmHg 97%
    03:00 +8°C° 0 mm 1 mps 597 mmHg 97%
    04:00 +8°C° 0 mm 1 mps 597 mmHg 97%
    05:00 +9°C° 0 mm 1 mps 597 mmHg 93%
    06:00 +11°C° 0 mm 1 mps 598 mmHg 89%
    07:00 +12°C° 0 mm 1 mps 599 mmHg 85%
    08:00 +14°C° 0 mm 1 mps 600 mmHg 73%
    09:00 +16°C° 0 mm 1 mps 600 mmHg 62%
    10:00 +18°C° 0 mm 2 mps 601 mmHg 50%
    11:00 +19°C° 0 mm 2 mps 601 mmHg 47%
    12:00 +19°C° 0 mm 2 mps 601 mmHg 45%
    13:00 +20°C° 0 mm 2 mps 601 mmHg 42%
    14:00 +20°C° 0 mm 2 mps 601 mmHg 45%
    15:00 +20°C° 0 mm 2 mps 601 mmHg 47%
    16:00 +19°C° 0 mm 3 mps 601 mmHg 49%
    17:00 +18°C° 0.1 mm 2 mps 600 mmHg 58%
    18:00 +17°C° 0.1 mm 2 mps 600 mmHg 68%
    19:00 +15°C° 0.1 mm 2 mps 599 mmHg 77%
    20:00 +14°C° 0.1 mm 1 mps 599 mmHg 83%
    21:00 +12°C° 0.1 mm 1 mps 599 mmHg 89%
    22:00 +10°C° 0.1 mm 1 mps 598 mmHg 95%
    23:00 +10°C° 0 mm 1 mps 598 mmHg 96%

    26 July, Thursday

    Time Temperature Precipitation Wind Pressure Humidity
    00:00 +9°C° 0 mm 1 mps 598 mmHg 96%
    01:00 +9°C° 0 mm 1 mps 597 mmHg 96%
    02:00 +9°C° 0 mm 1 mps 597 mmHg 96%
    03:00 +9°C° 0 mm 1 mps 597 mmHg 96%
    04:00 +9°C° 0 mm 1 mps 597 mmHg 96%
    05:00 +10°C° 0 mm 1 mps 598 mmHg 92%
    06:00 +11°C° 0 mm 1 mps 599 mmHg 88%
    07:00 +12°C° 0 mm 1 mps 599 mmHg 84%
    08:00 +14°C° 0 mm 1 mps 600 mmHg 72%
    09:00 +16°C° 0 mm 2 mps 601 mmHg 61%
    10:00 +18°C° 0 mm 2 mps 602 mmHg 49%
    11:00 +19°C° 0 mm 2 mps 602 mmHg 48%
    12:00 +19°C° 0 mm 2 mps 602 mmHg 46%
    13:00 +20°C° 0 mm 2 mps 602 mmHg 45%
    14:00 +20°C° 0.2 mm 3 mps 602 mmHg 49%
    15:00 +19°C° 0.2 mm 3 mps 602 mmHg 53%
    16:00 +19°C° 0.2 mm 3 mps 601 mmHg 56%
    17:00 +18°C° 0.4 mm 3 mps 601 mmHg 65%
    18:00 +16°C° 0.4 mm 2 mps 601 mmHg 73%
    19:00 +15°C° 0.4 mm 2 mps 600 mmHg 81%
    20:00 +13°C° 0.1 mm 1 mps 600 mmHg 86%
    21:00 +11°C° 0.1 mm 1 mps 599 mmHg 91%
    22:00 +10°C° 0.1 mm 1 mps 599 mmHg 95%
    23:00 +9°C° 0 mm 1 mps 598 mmHg 96%

    27 July, Friday

    Time Temperature Precipitation Wind Pressure Humidity
    00:00 +9°C° 0 mm 1 mps 598 mmHg 96%
    01:00 +9°C° 0 mm 1 mps 598 mmHg 96%
    02:00 +8°C° 0 mm 1 mps 598 mmHg 96%
    03:00 +8°C° 0 mm 1 mps 598 mmHg 95%
    04:00 +8°C° 0 mm 1 mps 597 mmHg 95%
    05:00 +10°C° 0 mm 1 mps 598 mmHg 91%
    06:00 +10°C° 0 mm 0 mps 599 mmHg 86%
    07:00 +12°C° 0 mm 0 mps 600 mmHg 81%
    08:00 +14°C° 0 mm 0 mps 600 mmHg 72%
    09:00 +18°C° 0 mm 1 mps 601 mmHg 62%
    10:00 +20°C° 0 mm 1 mps 602 mmHg 53%
    11:00 +20°C° 0.1 mm 1 mps 602 mmHg 50%
    12:00 +21°C° 0.1 mm 1 mps 602 mmHg 47%
    13:00 +22°C° 0.1 mm 1 mps 602 mmHg 43%
    14:00 +20°C° 0.4 mm 2 mps 602 mmHg 46%
    15:00 +20°C° 0.4 mm 2 mps 602 mmHg 49%
    16:00 +20°C° 0.4 mm 2 mps 601 mmHg 53%
    17:00 +18°C° 1 mm 2 mps 601 mmHg 62%
    18:00 +18°C° 1 mm 1 mps 600 mmHg 72%
    19:00 +15°C° 1 mm 1 mps 600 mmHg 82%
    20:00 +14°C° 0.7 mm 1 mps 599 mmHg 86%
    21:00 +12°C° 0.7 mm 1 mps 599 mmHg 89%
    22:00 +11°C° 0.7 mm 1 mps 599 mmHg 93%
    23:00 +11°C° 0.3 mm 1 mps 598 mmHg 93%
    Show more